Location: Songkhla
(7.2000°N, 100.6000°E)
Time: 04:11:40
(UTC+07:00)

BRICSAT 2 - Pass Details

Date: 21 June 2021
Orbit: 295 x 638 km, 28.5° (Epoch: 28 July)

Event Time Altitude Azimuth Distance (km) Brightness Sun altitude
Rises 21:30:49 0° 289° (WNW) 2,687 ? -38.7°
Enters shadow 21:32:32 - 285° (WNW) 2,039 ? -39.0°
Reaches altitude 10° 21:33:03 10° 283° (WNW) 1,853 - -39.1°
Maximum altitude 21:37:14 46° 210° (SSW) 808 - -39.9°
Drops below altitude 10° 21:41:49 10° 136° (SE) 2,025 - -40.8°
Sets 21:44:19 0° 131° (SE) 2,948 - -41.3°
